EW5462 Weather Reports


Display with metric or nautical units.
time (UTC)temp
F
wind
direction
speed
MPH
gust
MPH
rain 1hr
in
rain 24hr
in
rain mn
in
humidity
%
barometer
mb
20260831042517 95 191 5.0 7.0 0.00 0.00 0.00 43 1006.8
20260831041617 95 172 8.0 10.0 0.00 0.00 0.00 42 1006.5
20260831035916 95 168 9.0 12.0 0.00 0.00 0.00 46 1006.1
20260831034916 96 157 9.0 11.0 0.00 0.00 0.00 45 1005.7
20260831033916 96 164 10.0 13.0 0.00 0.00 0.00 44 1005.5
20260831032917 97 172 9.0 12.0 0.00 0.00 0.00 42 1005.4
20260831031917 98 164 9.0 12.0 0.00 0.00 0.00 37 1005.1
20260831030916 99 175 6.0 10.0 0.00 0.00 0.00 38 1004.9
20260831025917 99 178 8.0 11.0 0.00 0.00 0.00 37 1004.6
20260831024916 100 168 10.0 13.0 0.00 0.00 0.00 36 1004.3
20260831023917 100 176 9.0 13.0 0.00 0.00 0.00 35 1004.1
20260831022917 101 168 9.0 12.0 0.00 0.00 0.00 35 1003.9
20260831021916 101 158 8.0 11.0 0.00 0.00 0.00 35 1003.8
20260831020916 101 161 9.0 12.0 0.00 0.00 0.00 35 1003.7
20260831015915 102 160 7.0 12.0 0.00 0.00 0.00 34 1003.7
20260831014917 103 157 5.0 8.0 0.00 0.00 0.00 33 1003.6
20260831013916 103 172 7.0 10.0 0.00 0.00 0.00 33 1003.6
20260831012916 103 176 7.0 10.0 0.00 0.00 0.00 32 1003.6
20260831011917 104 181 5.0 9.0 0.00 0.00 0.00 31 1003.6
20260831010915 104 195 4.0 8.0 0.00 0.00 0.00 30 1003.5
20260831005916 105 189 2.0 7.0 0.00 0.00 0.00 29 1003.5
20260831004915 105 167 2.0 6.0 0.00 0.00 0.00 30 1003.3
20260831003917 105 209 5.0 7.0 0.00 0.00 0.00 28 1003.3
20260831002917 105 188 2.0 6.0 0.00 0.00 0.00 29 1003.4
20260831002617 106 195 6.0 8.0 0.00 0.00 0.00 29 1003.5
20260831001617 107 209 5.0 8.0 0.00 0.00 0.00 28 1003.6
20260831000617 110 193 5.0 7.0 0.00 0.00 0.00 27 1003.4
20260830235617 110 201 6.0 9.0 0.00 0.00 0.00 27 1003.5
20260830234616 109 125 0.0 0.0 0.00 0.00 0.00 28 1003.6
20260830233616 110 197 2.0 6.0 0.00 0.00 0.00 27 1003.8
20260830232616 110 156 6.0 8.0 0.00 0.00 0.00 28 1003.9
20260830231617 110 166 5.0 8.0 0.00 0.00 0.00 28 1004.1
20260830230617 110 180 8.0 11.0 0.00 0.00 0.00 29 1004.2
20260830225617 110 154 8.0 10.0 0.00 0.00 0.00 29 1004.3
20260830224616 109 190 0.0 0.0 0.00 0.00 0.00 30 1004.5
20260830223616 109 195 5.0 10.0 0.00 0.00 0.00 29 1004.7
20260830222616 109 143 7.0 10.0 0.00 0.00 0.00 28 1004.9
20260830221616 110 165 6.0 9.0 0.00 0.00 0.00 31 1005.0
20260830220617 109 133 3.0 7.0 0.00 0.00 0.00 32 1005.3
20260830215617 108 181 3.0 6.0 0.00 0.00 0.00 32 1005.5
20260830214616 109 191 5.0 8.0 0.00 0.00 0.00 32 1005.6
20260830213517 109 149 8.0 10.0 0.00 0.00 0.00 32 1005.9
20260830212517 109 147 8.0 11.0 0.00 0.00 0.00 32 1006.0
20260830211517 108 141 8.0 11.0 0.00 0.00 0.00 33 1006.2
20260830210517 108 149 8.0 11.0 0.00 0.00 0.00 34 1006.5
20260830210317 107 167 3.0 6.0 0.00 0.00 0.00 35 1006.5
20260830205316 107 158 8.0 13.0 0.00 0.00 0.00 34 1006.7
20260830204317 107 151 9.0 11.0 0.00 0.00 0.00 35 1006.8
20260830203316 108 153 12.0 15.0 0.00 0.00 0.00 35 1006.9
20260830202317 106 184 0.0 1.0 0.00 0.00 0.00 36 1007.1
20260830201317 107 167 9.0 11.0 0.00 0.00 0.00 34 1007.2
20260830200317 107 191 7.0 10.0 0.00 0.00 0.00 35 1007.4
20260830195316 106 204 8.0 12.0 0.00 0.00 0.00 36 1007.5
20260830194317 105 170 9.0 12.0 0.00 0.00 0.00 37 1007.7
20260830193817 106 170 6.0 10.0 0.00 0.00 0.00 37 1007.7
20260830192816 105 176 7.0 10.0 0.00 0.00 0.00 37 1007.8
20260830191817 105 166 9.0 13.0 0.00 0.00 0.00 37 1008.0
20260830190816 105 163 9.0 12.0 0.00 0.00 0.00 38 1008.2
20260830185817 104 153 12.0 14.0 0.00 0.00 0.00 39 1008.3
20260830184817 105 152 11.0 14.0 0.00 0.00 0.00 38 1008.4
20260830183816 103 157 7.0 12.0 0.00 0.00 0.00 41 1008.5
20260830182815 103 161 10.0 14.0 0.00 0.00 0.00 42 1008.6
20260830181817 103 158 10.0 12.0 0.00 0.00 0.00 41 1008.7
20260830180817 102 181 9.0 12.0 0.00 0.00 0.00 42 1008.8
20260830175817 102 183 9.0 9.0 0.00 0.00 0.00 44 1008.9
20260830174816 103 160 9.0 12.0 0.00 0.00 0.00 43 1009.0
20260830173815 102 154 11.0 14.0 0.00 0.00 0.00 44 1009.1
20260830172817 101 153 12.0 15.0 0.00 0.00 0.00 45 1009.1
20260830171816 101 157 10.0 12.0 0.00 0.00 0.00 46 1009.1
20260830170817 101 153 11.0 14.0 0.00 0.00 0.00 47 1009.1
20260830165817 100 156 11.0 14.0 0.00 0.00 0.00 48 1009.0
20260830164816 100 160 11.0 14.0 0.00 0.00 0.00 49 1009.0
20260830163817 99 166 11.0 15.0 0.00 0.00 0.00 51 1008.8
20260830162816 98 155 12.0 15.0 0.00 0.00 0.00 53 1008.8
20260830161816 98 156 12.0 14.0 0.00 0.00 0.00 53 1008.9
20260830160816 97 178 10.0 14.0 0.00 0.00 0.00 55 1009.0
20260830155816 97 163 11.0 15.0 0.00 0.00 0.00 55 1009.0
20260830154817 97 165 11.0 15.0 0.00 0.00 0.00 56 1008.9
20260830153817 96 165 11.0 15.0 0.00 0.00 0.00 58 1008.9
20260830152817 95 155 14.0 16.0 0.00 0.00 0.00 59 1008.9
20260830151817 95 157 10.0 11.0 0.00 0.00 0.00 59 1009.1
20260830150916 94 162 11.0 14.0 0.00 0.00 0.00 60 1009.1
20260830145917 94 151 11.0 13.0 0.00 0.00 0.00 60 1009.2
20260830144917 93 144 12.0 14.0 0.00 0.00 0.00 59 1009.2
20260830143917 93 153 11.0 14.0 0.00 0.00 0.00 59 1009.3
20260830142917 92 144 11.0 14.0 0.00 0.00 0.00 60 1009.2
20260830142216 92 142 12.0 14.0 0.00 0.00 0.00 61 1009.2
20260830141215 91 143 11.0 14.0 0.00 0.00 0.00 62 1009.2
20260830140217 91 133 8.0 10.0 0.00 0.00 0.00 63 1009.2
20260830135217 90 150 10.0 13.0 0.00 0.00 0.00 65 1009.1
20260830134217 89 136 9.0 11.0 0.00 0.00 0.00 66 1008.9
20260830133216 89 142 11.0 14.0 0.00 0.00 0.00 65 1008.6
20260830132215 89 142 10.0 11.0 0.00 0.00 0.00 65 1008.4
20260830131217 89 147 11.0 12.0 0.00 0.00 0.00 65 1008.2
20260830130217 88 147 11.0 14.0 0.00 0.00 0.00 65 1008.0
20260830125216 89 147 12.0 13.0 0.00 0.00 0.00 65 1007.9
20260830125016 89 149 6.0 8.0 0.00 0.00 0.00 65 1007.9
20260830124017 89 160 11.0 12.0 0.00 0.00 0.00 64 1007.7
20260830123917 89 152 7.0 10.0 0.00 0.00 0.00 64 1007.7
20260830122917 89 150 9.0 11.0 0.00 0.00 0.00 63 1007.6
20260830121915 89 159 8.0 10.0 0.00 0.00 0.00 63 1007.4
20260830120917 89 154 6.0 9.0 0.00 0.00 0.00 62 1007.2
20260830115916 89 156 5.0 8.0 0.00 0.00 0.00 62 1007.2
20260830114915 89 154 3.0 6.0 0.00 0.00 0.00 62 1007.2
20260830113917 89 156 5.0 8.0 0.00 0.00 0.00 62 1007.2
20260830112916 89 165 6.0 10.0 0.00 0.00 0.00 62 1007.2
20260830111917 90 154 7.0 9.0 0.00 0.00 0.00 62 1007.1
20260830110917 90 160 8.0 10.0 0.00 0.00 0.00 63 1007.1
20260830105916 90 157 8.0 11.0 0.00 0.00 0.00 62 1007.0
20260830104917 90 155 8.0 10.0 0.00 0.00 0.00 61 1006.9
20260830103916 90 156 8.0 10.0 0.00 0.00 0.00 60 1006.9
20260830102916 91 154 7.0 10.0 0.00 0.00 0.00 59 1006.9
20260830101917 91 151 9.0 12.0 0.00 0.00 0.00 57 1006.8
20260830100917 91 152 9.0 11.0 0.00 0.00 0.00 57 1006.8
20260830095917 91 149 8.0 11.0 0.00 0.00 0.00 58 1006.7
20260830094916 90 151 8.0 10.0 0.00 0.00 0.00 59 1006.6
20260830093916 91 150 5.0 9.0 0.00 0.00 0.00 59 1006.5
20260830092917 90 151 8.0 11.0 0.00 0.00 0.00 60 1006.4
20260830091917 90 152 6.0 7.0 0.00 0.00 0.00 61 1006.3
20260830091017 90 150 3.0 5.0 0.00 0.00 0.00 63 1006.1
20260830090017 90 0.0 0.0 0.00 0.00 0.00 63 1006.1
20260830085016 90 0.0 0.0 0.00 0.00 0.00 62 1006.1
20260830084017 90 0.0 0.0 0.00 0.00 0.00 62 1006.1
20260830083017 91 0.0 0.0 0.00 0.00 0.00 61 1006.2
20260830082016 91 0.0 0.0 0.00 0.00 0.00 61 1006.3
20260830081017 91 174 0.0 2.0 0.00 0.00 0.00 60 1006.2
20260830080016 91 179 2.0 6.0 0.00 0.00 0.00 60 1006.3
20260830075017 92 175 3.0 6.0 0.00 0.00 0.00 59 1006.4
20260830074016 93 168 6.0 8.0 0.00 0.00 0.00 57 1006.4
20260830073017 93 160 6.0 7.0 0.00 0.00 0.00 56 1006.5
20260830072417 93 156 3.0 5.0 0.00 0.00 0.00 55 1006.6
20260830071517 93 154 6.0 8.0 0.00 0.00 0.00 52 1006.7
20260830070517 94 168 6.0 7.0 0.00 0.00 0.00 49 1006.6
20260830065517 94 173 2.0 6.0 0.00 0.00 0.00 45 1006.6
20260830064515 94 0.0 0.0 0.00 0.00 0.00 43 1006.5
20260830063516 95 180 1.0 4.0 0.00 0.00 0.00 42 1006.4
20260830062517 95 212 4.0 6.0 0.00 0.00 0.00 41 1006.3
20260830061517 95 226 0.0 1.0 0.00 0.00 0.00 40 1006.3
20260830060517 96 208 0.0 3.0 0.00 0.00 0.00 38 1006.3
20260830055516 96 0.0 0.0 0.00 0.00 0.00 38 1006.3
20260830054516 97 196 0.0 2.0 0.00 0.00 0.00 38 1006.4
20260830053517 97 199 5.0 6.0 0.00 0.00 0.00 36 1006.4
20260830052516 98 194 4.0 6.0 0.00 0.00 0.00 36 1006.4
20260830051515 98 177 0.0 1.0 0.00 0.00 0.00 35 1006.4
20260830050517 98 185 6.0 10.0 0.00 0.00 0.00 35 1006.4
20260830045516 99 170 7.0 10.0 0.00 0.00 0.00 35 1006.3
20260830044516 99 208 2.0 5.0 0.00 0.00 0.00 36 1006.6
20260830043517 98 308 3.0 6.0 0.00 0.00 0.00 37 1006.5